SCP
0 0 0 0 0 0 0 0 0 0 0 0 0 0 0 0 0 0 0 0 0 0 0 0 0 0 0 0 0 0 1 1 0 0 0 0 0 0 0 0 0 0 0
0 0 0 0 0 0 0 0 0 0 0 0 0 0 0 0 0 0 0 0 0 0 0 0 0 0 0 0 0 1 1 1 0 0 0 0 0 0 0 0 0 0 0
0 0 0 0 0 0 0 0 0 0 0 0 0 0 0 0 0 0 0 0 0 0 0 0 0 0 0 0 1 1 0 0 0 0 0 0 0 0 0 0 0 0 0
0 0 0 0 0 0 0 0 0 0 0 0 0 0 0 0 0 0 0 0 0 0 0 0 0 0 0 0 0 1 0 0 0 0 0 0 0 0 0 0 0 0 0
0 0 0 0 0 0 0 0 0 0 0 0 0 0 0 0 0 0 0 0 0 0 0 0 0 0 0 0 0 0 0 0 0 0 0 0 0 0 0 0 0 0 0
0 0 0 0 0 0 0 0 0 0 0 0 0 0 0 0 0 0 0 0 0 0 0 0 0 0 0 0 0 0 0 0 0 0 0 0 0 0 0 0 0 0 0
0 -4 -6 -4 0 0 0 0 0 0 0 0 0 0 0 0 0 0 0 0 0 0 0 0 0 0 0 0 0 0 0 0 0 0 0 0 0 0 0 0 0 0 0
0 -6 -12 -6 0 0 0 0 0 0 0 0 0 0 0 0 0 0 0 0 0 0 0 0 0 0 0 0 0 0 0 0 0 0 0 0 0 0 0 0 0 0 0
0 -4 -6 -4 0 0 0 0 0 0 0 0 0 0 0 0 0 0 0 0 0 0 0 0 0 0 0 0 0 0 0 0 0 0 0 0 0 0 0 0 0 0 0
0 0 0 0 0 0 0 0 0 0 0 0 0 0 0 0 0 0 0 0 0 0 0 0 0 0 0 0 0 0 0 0 0 0 0 0 0 0 0 0 0 0 0
0 0 0 0 0 0 0 0 0 0 0 0 0 0 0 0 0 0 0 0 0 0 0 0 0 0 0 0 0 0 0 0 0 0 0 0 0 0 0 0 0 0 0
0 0 0 0 0 0 0 0 0 0 0 0 0 0 0 0 0 0 0 0 0 0 0 0 0 0 0 0 0 0 0 0 0 0 0 0 0 0 0 0 0 0 0
0 0 0 0 0 0 0 0 0 0 0 0 0 0 0 0 0 0 0 0 0 0 0 0 0 0 0 0 0 0 0 0 0 0 0 0 0 0 0 0 0 0 0
0 0 0 0 0 0 0 0 0 0 0 0 0 0 0 0 0 0 0 0 0 0 0 0 0 0 0 0 0 0 0 0 0 0 0 0 0 0 0 0 0 0 0
0 0 0 0 0 0 0 0 0 0 0 0 0 0 0 0 0 0 0 0 0 0 0 0 0 0 0 0 0 0 0 0 0 0 0 0 0 0 0 0 0 0 0
0 0 0 0 0 0 0 0 0 0 0 0 0 0 0 0 0 0 0 0 0 0 0 0 0 0 0 0 0 0 0 0 0 0 0 0 0 0 0 0 0 0 0
0 0 0 0 0 0 0 0 0 0 0 0 0 0 0 0 0 0 0 0 0 0 0 0 0 0 0 0 0 0 0 0 0 0 0 0 0 0 0 0 0 0 0
0 0 0 0 0 0 0 0 0 0 0 0 0 0 0 0 0 0 0 0 0 0 0 0 0 0 0 0 0 0 0 0 0 0 0 0 0 0 0 0 0 0 0
0 0 0 0 0 0 0 0 0 0 0 0 0 0 0 0 0 0 0 0 0 0 0 0 0 0 0 0 0 0 0 0 0 0 0 0 0 0 0 0 0 0 0
0 0 0 0 0 0 0 0 0 0 0 0 0 0 0 0 0 0 0 0 0 0 0 0 0 0 0 0 0 0 0 0 0 0 0 0 0 0 0 0 0 0 0
0 0 0 0 0 0 0 0 0 0 0 0 0 0 0 0 0 0 0 0 0 0 0 0 0 0 0 0 0 0 0 0 0 0 0 0 0 0 0 0 0 0 0
0 0 0 0 0 0 0 0 0 0 0 0 0 0 0 0 0 0 0 0 0 0 0 0 0 0 0 0 0 0 0 0 0 0 0 0 0 0 0 0 0 0 0
0 0 0 0 0 0 0 0 0 0 0 0 0 0 0 0 0 0 0 0 0 0 0 0 0 0 0 0 0 0 0 0 0 0 0 0 0 0 0 0 0 0 0
0 0 0 0 0 0 0 0 0 0 0 0 0 0 0 0 0 -0 0 0 0 0 0 0 0 0 0 0 0 0 0 0 0 0 0 0 0 0 0 0 0 0 0
0 0 0 0 0 0 0 0 0 0 0 0 0 0 0 0 0 0 0 0 0 0 0 0 0 0 0 0 0 0 0 0 0 0 0 0 0 0 0 0 0 0 0
0 0 0 0 0 0 0 0 0 0 0 0 0 0 0 0 0 0 0 0 0 0 0 0 0 0 0 0 0 0 0 0 0 0 0 0 0 0 0 0 0 0 0
Wind_Speed
2 1 1 1 1 1 1 1 1 2 2 2 2 2 3 3 3 3 3 6 8 8 8 8 8 8 8 8 8 8 8 9 8 8 8 8 8 8 8 8 8 8 8
1 1 1 1 1 1 1 1 1 1 1 2 2 2 2 3 3 3 3 4 7 8 8 7 7 7 8 8 8 8 8 8 8 8 8 8 8 9 8 8 8 8 9
2 1 1 1 1 1 0 0 1 0 1 1 2 2 2 3 3 4 3 3 3 6 7 7 7 7 8 8 8 8 8 8 8 9 9 9 9 9 9 9 9 9 9
2 2 1 1 1 0 0 0 0 0 1 1 1 2 1 1 3 3 3 3 3 3 5 7 7 7 7 8 8 7 7 7 7 9 10 10 10 10 9 9 9 9 9
2 2 1 1 1 0 0 0 0 0 1 1 1 1 1 1 1 2 2 3 3 3 3 5 7 8 8 8 7 7 7 7 6 7 9 10 10 10 10 10 9 9 10
2 2 1 0 1 1 0 0 0 0 0 1 1 1 1 1 1 2 3 3 3 4 4 4 3 4 8 8 8 8 8 8 7 8 8 8 9 9 9 9 10 10 10
2 2 1 1 1 1 1 0 0 1 1 1 1 2 3 2 1 2 2 2 3 3 3 4 3 3 3 7 8 8 8 8 8 8 9 8 8 8 9 9 9 10 10
2 2 2 1 1 1 0 0 0 0 1 0 1 1 2 4 3 2 1 2 2 2 3 4 3 4 4 3 5 8 8 8 9 8 8 8 8 9 9 9 10 10 10
2 2 2 1 1 1 1 1 1 2 1 1 1 2 2 2 3 3 2 2 1 1 2 2 4 4 4 3 3 6 7 7 8 7 6 7 7 8 8 9 10 10 10
1 2 2 1 1 1 1 2 1 2 2 0 1 0 2 2 1 2 3 2 2 2 2 3 3 4 4 3 4 6 7 6 7 7 7 7 7 8 8 9 10 10 10
1 2 2 1 1 1 2 2 1 1 2 2 1 0 0 0 1 1 3 4 3 2 2 2 2 3 4 4 4 6 8 7 8 8 8 7 7 7 8 9 10 10 11
1 1 2 2 2 2 2 2 2 2 2 2 1 1 1 1 1 1 2 3 3 3 2 2 2 2 3 3 6 8 9 8 8 8 8 7 7 8 8 9 9 11 11
1 2 2 2 2 2 2 2 2 2 2 2 2 2 2 2 2 2 2 2 2 3 2 2 2 2 2 2 4 7 8 9 9 9 8 8 8 8 8 9 9 9 10
2 3 2 2 2 2 2 1 1 2 2 2 2 2 1 1 2 2 2 2 1 3 2 3 2 2 2 2 4 7 5 8 9 10 9 9 9 9 9 9 9 9 9
2 2 2 1 1 1 1 1 1 1 1 1 2 2 1 1 1 2 2 3 3 2 3 3 3 3 2 2 4 3 4 7 9 9 10 9 9 9 9 9 8 8 8
1 1 1 1 1 1 1 1 1 1 1 1 1 1 1 1 1 1 1 1 2 3 3 3 3 3 3 3 3 3 4 6 7 8 8 9 9 10 10 9 9 9 9
2 2 2 2 1 1 1 1 1 1 1 1 1 1 1 1 0 1 1 1 1 2 3 4 2 2 2 3 3 3 3 3 4 8 9 9 10 10 10 11 10 10 9
2 2 2 2 2 1 1 1 1 1 1 1 1 1 1 0 0 1 1 1 2 2 2 4 3 2 3 3 3 3 3 3 3 7 9 9 10 10 10 11 11 11 11
1 1 1 2 2 1 1 1 1 1 1 1 2 2 2 1 1 1 1 1 2 2 2 2 3 2 2 3 2 3 3 3 4 5 6 8 9 9 10 10 11 11 11
1 1 1 1 2 2 1 1 1 1 1 1 1 2 2 2 3 2 2 2 1 1 1 1 2 3 3 3 1 2 3 3 4 4 4 4 6 8 9 10 10 10 11
1 1 1 1 1 1 1 2 1 1 1 1 1 1 2 3 3 3 2 2 2 1 1 1 2 2 3 2 2 2 3 3 4 3 2 3 3 3 5 7 8 9 10
1 1 1 1 0 0 1 3 2 1 1 2 2 2 2 3 3 3 4 4 4 3 3 2 2 3 4 4 3 2 2 2 4 3 2 4 2 3 4 4 7 9 10
1 1 1 1 1 2 3 3 3 2 2 2 2 2 2 2 2 2 4 5 5 6 6 5 4 5 5 4 3 3 3 4 5 4 2 4 3 4 4 5 8 9 10
2 2 2 2 2 3 4 3 2 2 2 2 3 3 3 3 3 3 2 3 4 5 6 4 6 6 6 5 4 4 5 4 4 3 2 3 3 3 4 3 7 9 10
2 2 2 3 3 3 4 4 2 1 1 2 3 3 3 4 6 4 2 3 5 5 6 7 7 8 8 8 4 1 1 1 3 3 2 2 3 3 3 3 5 7 8
3 3 2 3 4 4 5 5 3 2 2 3 3 3 5 5 6 5 3 3 5 6 4 4 4 5 5 5 6 4 4 3 2 3 3 2 2 1 2 3 2 3 3
Wind_Direction
171 182 203 192 225 250 252 270 274 269 270 264 248 229 212 205 202 199 202 202 201 201 203 202 205 207 203 206 209 205 199 197 199 201 202 204 207 208 208 212 215 215 215
147 162 172 172 211 228 232 243 257 264 262 258 264 248 227 212 211 206 201 205 201 197 202 205 209 212 210 211 211 210 208 207 207 209 209 209 210 211 211 213 216 218 218
143 155 164 199 224 225 215 347 309 346 305 307 292 265 229 217 210 204 196 199 202 200 201 208 210 209 209 209 210 210 211 211 210 213 215 217 217 217 216 218 219 220 220
153 150 151 207 225 169 133 172 8 20 324 314 299 286 270 241 217 204 192 192 193 200 206 205 205 206 209 210 207 205 209 213 211 215 219 220 219 218 219 222 225 224 221
156 145 165 210 190 136 160 231 97 170 266 299 278 283 299 268 231 207 202 200 200 200 204 207 208 210 212 216 214 215 219 222 220 224 226 225 221 219 219 221 223 224 224
161 143 158 211 148 136 47 118 173 309 230 263 285 315 306 279 254 222 219 211 211 214 209 212 211 216 217 220 220 221 226 230 231 231 232 231 227 223 221 222 222 222 223
151 142 154 170 153 156 204 199 89 11 334 7 33 343 328 314 282 255 230 210 220 227 215 211 210 211 225 228 227 226 230 236 236 231 233 233 230 227 224 225 226 225 223
169 162 164 182 180 168 161 104 111 81 307 48 120 62 347 336 323 298 274 244 237 229 220 221 216 217 218 216 223 224 229 233 236 236 233 234 234 233 232 230 229 227 225
179 178 172 178 175 174 193 199 170 158 235 303 132 142 146 256 306 315 299 286 273 234 234 226 217 221 215 213 220 224 224 226 229 231 233 236 236 235 236 236 235 231 229
192 194 182 177 179 187 202 212 180 170 157 226 305 211 180 176 179 307 316 314 291 260 250 237 226 226 221 214 220 218 217 219 225 231 239 242 239 238 239 239 238 235 233
203 203 186 176 188 195 204 197 164 153 160 170 194 238 335 39 169 185 285 307 316 291 267 251 241 238 229 216 215 220 214 213 219 229 233 237 237 240 241 243 242 239 236
246 230 199 193 202 204 204 201 193 181 187 177 182 174 174 181 213 196 239 274 286 286 282 272 256 248 241 225 227 219 211 212 220 225 229 231 238 244 244 244 246 243 239
224 231 215 207 212 215 211 201 189 200 199 191 194 205 200 207 200 192 206 261 281 292 302 295 271 259 250 228 240 233 224 221 219 219 224 230 238 244 248 249 251 251 246
210 212 212 216 222 227 225 202 204 220 213 209 214 204 209 233 208 193 189 195 279 297 295 278 288 272 270 245 244 243 239 229 223 222 225 232 239 242 243 246 247 249 247
200 200 204 229 244 229 210 168 192 228 206 215 216 208 216 239 221 217 200 181 180 245 271 271 272 276 274 254 255 244 243 238 232 229 230 234 240 240 240 241 242 243 242
206 182 202 206 228 231 202 150 153 190 172 220 210 199 239 245 240 235 228 210 186 194 243 259 254 271 284 284 280 263 252 256 242 239 240 239 238 238 239 242 238 238 239
195 202 214 213 216 220 189 158 190 201 196 242 232 158 227 255 244 268 242 224 214 187 234 272 271 287 292 285 293 282 259 245 246 247 246 246 244 243 242 241 238 235 235
198 207 209 205 210 205 191 175 199 195 198 215 217 176 250 258 302 278 271 260 246 218 212 261 281 287 280 277 277 277 275 267 255 254 249 248 248 246 244 242 238 235 234
197 217 200 198 207 199 189 187 184 189 202 205 197 193 218 193 266 265 256 260 269 270 222 234 272 280 285 296 306 301 295 289 277 267 250 249 249 249 247 243 241 236 233
189 205 190 196 192 173 159 155 149 172 195 206 196 196 202 202 226 233 243 249 251 285 286 267 278 289 288 293 316 307 309 301 289 287 279 266 258 256 252 247 243 240 233
193 181 150 133 149 163 175 163 175 180 188 231 250 229 221 226 235 222 221 225 219 227 255 263 276 289 287 294 284 273 283 297 292 275 279 270 262 259 257 251 248 245 240
178 149 152 152 182 263 196 189 182 183 193 202 233 259 260 254 266 262 256 243 218 209 221 226 245 256 266 262 263 264 268 293 290 272 260 273 251 253 254 242 245 247 247
180 181 200 168 206 244 223 214 199 179 192 214 227 249 270 266 263 267 272 273 265 252 227 211 225 243 248 247 243 259 250 243 250 256 242 266 265 262 260 258 249 245 247
189 201 206 203 210 242 223 213 209 182 207 238 235 231 241 262 259 247 255 271 274 271 261 235 227 239 241 241 229 233 237 253 267 265 209 246 261 260 270 264 258 252 249
206 214 202 201 208 243 230 215 202 191 240 266 259 252 242 246 258 247 239 267 283 286 274 260 251 253 253 254 242 226 249 241 281 278 227 215 258 274 276 271 265 260 254
211 211 217 219 214 229 231 218 197 180 236 270 282 276 264 254 259 250 227 240 269 278 288 300 295 289 270 260 241 211 209 217 252 273 252 207 247 264 290 276 270 269 265